Date String (YYYY-MM-DD hh:mm:ss) UTC,Instrument flags,absolute air pressure of the measurement (hPa),sample flow rate (lpm),inlet stack bypass flow (lpm),air temperature of the measurement (°C),ambient temperature measured by the external sensor (°C),aerosol sample conditioner tube jacket temperature (°C),OPC LED temperature (°C),internal box temperature (°C),relative humidity of the measurement (%),span deviation,mass concentration of particles derived from Lorenz-Mie calculation of OPC scattering (μg/m³),mass concentration of particles derived from Lorenz-Mie calculation of OPC scattering (μg/m³),mass concentration of particles derived from Lorenz-Mie calculation of OPC scattering (μg/m³)
DateTimeUTC,F1_M11,P_M11,Q1_M11,Q2_M11,T1_M11,T2_M11,T3_M11,T4_M11,T5_M11,U1_M11,ZSPAN_M11,X0_M11,X2_M11,X1_M11
2023-09-05 04:00:00,SystemResetWarning,0825.6,5.00,000.00,027.9,025.2,000.0,036.4,029.3,20.5,0000.0,0002.61,0001.75,0001.29
2023-09-05 04:01:00,SystemResetWarning,0825.6,5.01,000.00,027.9,025.6,000.0,036.4,029.4,20.5,0000.0,0002.56,0001.74,0001.30
2023-09-05 04:02:00,SystemResetWarning,0825.6,5.00,000.00,028.0,025.9,000.0,036.4,029.5,20.4,0000.0,0002.64,0001.73,0001.30
2023-09-05 04:03:00,SystemResetWarning,0825.6,4.99,000.00,028.0,026.2,000.0,036.4,029.5,20.4,0000.0,0002.62,0001.71,0001.29
2023-09-05 04:04:00,SystemResetWarning,0825.7,5.00,000.00,028.0,026.4,000.0,036.4,029.6,20.4,0000.0,0002.53,0001.66,0001.27
2023-09-05 04:05:00,SystemResetWarning,0825.7,5.00,000.00,028.1,026.6,000.0,036.4,029.7,20.3,0000.0,0002.69,0001.68,0001.27
2023-09-05 04:06:00,SystemResetWarning,0825.8,5.01,000.00,028.1,026.7,000.0,036.4,029.7,20.2,0000.0,0003.15,0001.71,0001.28
2023-09-05 04:07:00,SystemResetWarning,0825.8,5.00,000.00,028.1,026.9,000.0,036.4,029.8,20.0,0000.0,0003.01,0001.66,0001.28
2023-09-05 04:08:00,SystemResetWarning,0825.9,5.00,000.00,028.2,027.0,000.0,036.5,029.8,20.0,0000.0,0002.88,0001.60,0001.26
2023-09-05 04:09:00,SystemResetWarning,0825.9,5.00,000.00,028.2,027.1,000.0,036.5,029.9,20.0,0000.0,0002.93,0001.61,0001.26
2023-09-05 04:10:00,SystemResetWarning,0825.9,5.00,000.00,028.2,027.2,000.0,036.5,029.9,19.9,0000.0,0003.02,0001.66,0001.25
2023-09-05 04:11:00,SystemResetWarning,0825.9,4.99,000.00,028.3,027.2,000.0,036.5,029.9,19.6,0000.0,0003.04,0001.66,0001.24
2023-09-05 04:12:00,SystemResetWarning,0825.9,5.01,000.00,028.3,027.3,000.0,036.6,030.0,19.4,0000.0,0003.03,0001.66,0001.24
2023-09-05 04:13:00,SystemResetWarning,0825.9,4.99,000.00,028.3,026.1,000.0,036.5,029.6,19.5,0000.0,0002.96,0001.66,0001.24
2023-09-05 04:14:00,SystemResetWarning,0825.9,5.00,000.00,028.2,024.7,000.0,036.4,029.3,19.0,0000.0,0002.93,0001.64,0001.25
2023-09-05 04:15:00,SystemResetWarning,0825.9,5.00,000.00,028.0,024.6,000.0,036.4,029.2,19.3,0000.0,0003.03,0001.70,0001.27
2023-09-05 04:16:00,SystemResetWarning,0825.9,5.01,000.00,027.9,024.8,000.0,036.4,029.2,19.8,0000.0,0002.99,0001.66,0001.26
2023-09-05 04:17:00,SystemResetWarning,0825.9,5.02,000.00,027.9,025.2,000.0,036.4,029.3,19.8,0000.0,0002.56,0001.64,0001.25
2023-09-05 04:18:00,SystemResetWarning,0825.9,4.99,000.00,027.9,025.5,000.0,036.4,029.4,19.9,0000.0,0002.54,0001.65,0001.25
2023-09-05 04:19:00,SystemResetWarning,0825.8,5.00,000.00,028.0,025.8,000.0,036.4,029.4,19.8,0000.0,0003.42,0001.66,0001.24
2023-09-05 04:20:00,SystemResetWarning,0825.9,5.00,000.00,028.0,026.1,000.0,036.4,029.5,19.7,0000.0,0003.60,0001.69,0001.25
2023-09-05 04:21:00,SystemResetWarning,0825.9,5.00,000.00,028.0,026.4,000.0,036.4,029.6,19.7,0000.0,0003.58,0001.67,0001.25
2023-09-05 04:22:00,SystemResetWarning,0825.9,5.00,000.00,028.0,026.6,000.0,036.4,029.7,19.8,0000.0,0003.60,0001.68,0001.25
2023-09-05 04:23:00,SystemResetWarning,0826.0,5.00,000.00,028.1,026.7,000.0,036.4,029.7,19.7,0000.0,0003.71,0001.72,0001.26
2023-09-05 04:24:00,SystemResetWarning,0826.1,5.00,000.00,028.1,026.9,000.0,036.4,029.8,19.4,0000.0,0003.69,0001.71,0001.25
2023-09-05 04:25:00,SystemResetWarning,0826.1,5.00,000.00,028.1,027.0,000.0,036.5,029.8,19.3,0000.0,0003.67,0001.71,0001.24
2023-09-05 04:26:00,SystemResetWarning,0826.2,5.00,000.00,028.2,027.1,000.0,036.5,029.9,19.3,0000.0,0003.63,0001.66,0001.23
2023-09-05 04:27:00,SystemResetWarning,0826.2,5.00,000.00,028.2,027.2,000.0,036.5,029.9,19.4,0000.0,0003.87,0001.65,0001.24
2023-09-05 04:28:00,SystemResetWarning,0826.2,5.00,000.00,028.3,027.2,000.0,036.5,030.0,19.2,0000.0,0003.77,0001.63,0001.23
2023-09-05 04:29:00,SystemResetWarning,0826.2,5.00,000.00,028.3,027.3,000.0,036.6,030.0,19.2,0000.0,0004.23,0001.63,0001.22
2023-09-05 04:30:00,SystemResetWarning,0826.2,5.00,000.00,028.3,027.1,000.0,036.6,030.0,19.1,0000.0,0003.96,0001.63,0001.23
2023-09-05 04:31:00,SystemResetWarning,0826.2,4.99,000.00,028.3,025.4,000.0,036.5,029.5,19.1,0000.0,0003.62,0001.60,0001.23
2023-09-05 04:32:00,SystemResetWarning,0826.2,5.01,000.00,028.1,024.6,000.0,036.4,029.3,19.2,0000.0,0003.54,0001.58,0001.22
2023-09-05 04:33:00,SystemResetWarning,0826.2,5.01,000.00,028.0,024.7,000.0,036.4,029.3,19.0,0000.0,0003.63,0001.60,0001.23
2023-09-05 04:34:00,SystemResetWarning,0826.2,5.00,000.00,028.0,025.0,000.0,036.4,029.3,18.8,0000.0,0003.53,0001.55,0001.22
2023-09-05 04:35:00,SystemResetWarning,0826.2,4.99,000.00,028.0,025.4,000.0,036.4,029.4,19.1,0000.0,0003.66,0001.57,0001.22
2023-09-05 04:36:00,SystemResetWarning,0826.2,5.01,000.00,028.0,025.7,000.0,036.4,029.5,19.1,0000.0,0003.82,0001.62,0001.22
2023-09-05 04:37:00,SystemResetWarning,0826.2,5.00,000.00,028.0,026.0,000.0,036.4,029.6,19.0,0000.0,0003.83,0001.64,0001.23
2023-09-05 04:38:00,SystemResetWarning,0826.2,5.00,000.00,028.0,026.3,000.0,036.4,029.6,19.2,0000.0,0003.62,0001.67,0001.23
2023-09-05 04:39:00,SystemResetWarning,0826.2,5.00,000.00,028.1,026.5,000.0,036.4,029.7,19.2,0000.0,0003.65,0001.68,0001.24
2023-09-05 04:40:00,SystemResetWarning,0826.2,5.00,000.00,028.1,026.7,000.0,036.5,029.7,19.0,0000.0,0003.47,0001.70,0001.25
2023-09-05 04:41:00,SystemResetWarning,0826.2,5.00,000.00,028.1,026.8,000.0,036.5,029.7,18.7,0000.0,0003.04,0001.73,0001.25
2023-09-05 04:42:00,SystemResetWarning,0826.2,5.00,000.00,028.2,026.9,000.0,036.5,029.8,18.8,0000.0,0003.09,0001.77,0001.25
2023-09-05 04:43:00,SystemResetWarning,0826.2,5.00,000.00,028.2,027.0,000.0,036.5,029.9,18.6,0000.0,0003.62,0001.83,0001.25
2023-09-05 04:44:00,SystemResetWarning,0826.2,5.00,000.00,028.2,027.1,000.0,036.5,029.9,18.5,0000.0,0005.32,0001.83,0001.25
2023-09-05 04:45:00,SystemResetWarning,0826.2,5.00,000.00,028.3,027.2,000.0,036.5,029.9,18.8,0000.0,0005.56,0001.83,0001.25
2023-09-05 04:46:00,SystemResetWarning,0826.2,5.01,000.00,028.3,027.2,000.0,036.6,029.9,18.8,0000.0,0005.62,0001.85,0001.24
2023-09-05 04:47:00,SystemResetWarning,0826.2,5.00,000.00,028.3,027.3,000.0,036.6,030.0,18.7,0000.0,0005.55,0001.83,0001.24
2023-09-05 04:48:00,SystemResetWarning,0826.2,5.00,000.00,028.4,027.2,000.0,036.6,030.0,18.7,0000.0,0005.79,0001.80,0001.22
2023-09-05 04:49:00,SystemResetWarning,0826.2,4.98,000.00,028.3,025.7,000.0,036.5,029.5,19.0,0000.0,0005.86,0001.78,0001.21
2023-09-05 04:50:00,SystemResetWarning,0826.2,5.00,000.00,028.2,024.7,000.0,036.5,029.3,19.2,0000.0,0006.14,0001.75,0001.20
2023-09-05 04:51:00,SystemResetWarning,0826.2,5.01,000.00,028.1,024.7,000.0,036.4,029.2,19.4,0000.0,0006.29,0001.70,0001.19
2023-09-05 04:52:00,SystemResetWarning,0826.1,5.00,000.00,028.0,024.9,000.0,036.4,029.2,19.6,0000.0,0006.24,0001.67,0001.18
2023-09-05 04:53:00,SystemResetWarning,0826.2,4.99,000.00,028.0,025.3,000.0,036.4,029.3,19.4,0000.0,0006.62,0001.64,0001.17
2023-09-05 04:54:00,SystemResetWarning,0826.2,5.00,000.00,028.0,025.6,000.0,036.4,029.4,19.3,0000.0,0006.16,0001.59,0001.16
2023-09-05 04:55:00,SystemResetWarning,0826.2,5.00,000.00,028.0,025.9,000.0,036.4,029.5,19.3,0000.0,0004.27,0001.54,0001.15
2023-09-05 04:56:00,SystemResetWarning,0826.2,5.00,000.00,028.0,026.2,000.0,036.4,029.5,19.2,0000.0,0004.03,0001.54,0001.14
2023-09-05 04:57:00,SystemResetWarning,0826.1,5.01,000.00,028.0,026.4,000.0,036.4,029.6,18.9,0000.0,0003.93,0001.54,0001.14
2023-09-05 04:58:00,SystemResetWarning,0826.0,5.01,000.00,028.1,026.6,000.0,036.4,029.7,19.0,0000.0,0003.90,0001.52,0001.12
2023-09-05 04:59:00,SystemResetWarning,0826.1,4.99,000.00,028.1,026.7,000.0,036.5,029.7,19.1,0000.0,0003.70,0001.52,0001.12
